DW5856 Weather Reports


Display with metric or nautical units.
time (UTC)temp
F
wind
direction
speed
MPH
gust
MPH
rain 1hr
in
rain 24hr
in
rain mn
in
humidity
%
barometer
mb
20260906174509 79 94 2.0 8.0 0.00 0.00 0.00 51 1004.0
20260906173007 79 89 2.0 7.0 0.00 0.00 0.00 53 1004.3
20260906171505 78 99 2.0 9.0 0.00 0.00 0.00 56 1004.6
20260906170004 78 101 2.0 8.0 0.00 0.00 0.00 57 1004.8
20260906164503 76 71 1.0 5.0 0.00 0.00 0.00 56 1004.9
20260906163058 75 55 1.0 6.0 0.00 0.00 0.00 55 1004.7
20260906161555 74 22 4.0 6.0 0.00 0.00 0.00 58 1004.8
20260906160052 73 24 4.0 9.0 0.00 0.00 0.00 61 1005.0
20260906154556 72 44 2.0 9.0 0.00 0.00 0.00 62 1005.0
20260906153047 71 70 3.0 7.0 0.00 0.00 0.00 64 1005.1
20260906151547 70 49 3.0 7.0 0.00 0.00 0.00 66 1005.2
20260906150049 69 71 3.0 7.0 0.00 0.00 0.00 68 1005.4
20260906144545 69 46 4.0 8.0 0.00 0.00 0.00 66 1005.3
20260906143102 69 109 3.0 8.0 0.00 0.00 0.00 67 1005.3
20260906141544 68 38 3.0 7.0 0.00 0.00 0.00 70 1005.4
20260906140046 67 71 3.0 6.0 0.00 0.00 0.00 71 1005.6
20260906134549 64 5 4.0 7.0 0.00 0.00 0.00 72 1005.8
20260906133045 63 9 6.0 8.0 0.00 0.00 0.00 72 1005.6
20260906131547 62 13 4.0 6.0 0.00 0.00 0.00 73 1005.5
20260906130043 62 5 4.0 7.0 0.00 0.00 0.00 77 1005.3
20260906124534 62 56 3.0 6.0 0.00 0.00 0.00 77 1005.2
20260906123035 62 25 5.0 6.0 0.00 0.00 0.00 78 1004.9
20260906121529 62 28 4.0 6.0 0.00 0.00 0.00 77 1004.9
20260906120026 63 13 3.0 5.0 0.00 0.00 0.00 75 1004.9
20260906114529 63 33 4.0 8.0 0.00 0.00 0.00 75 1004.9
20260906113036 64 32 6.0 8.0 0.00 0.00 0.00 72 1004.9
20260906111522 64 26 6.0 11.0 0.00 0.00 0.00 71 1004.8
20260906110017 65 34 5.0 9.0 0.00 0.00 0.00 68 1004.7
20260906104514 64 22 5.0 8.0 0.00 0.00 0.00 68 1004.7
20260906103010 64 19 5.0 6.0 0.00 0.00 0.00 64 1004.7
20260906101508 65 45 3.0 9.0 0.00 0.00 0.00 62 1004.8
20260906100007 65 49 4.0 8.0 0.00 0.00 0.00 62 1004.8
20260906094508 65 29 5.0 8.0 0.00 0.00 0.00 60 1004.4
20260906093001 65 46 5.0 7.0 0.00 0.00 0.00 59 1004.3
20260906091600 66 38 5.0 9.0 0.00 0.00 0.00 58 1004.2
20260906090117 66 19 5.0 9.0 0.00 0.00 0.00 57 1004.0
20260906084556 66 17 5.0 9.0 0.00 0.00 0.00 56 1003.8
20260906083053 67 360 7.0 10.0 0.00 0.00 0.00 56 1003.9
20260906081553 68 42 5.0 7.0 0.00 0.00 0.00 55 1004.0
20260906080049 68 36 6.0 9.0 0.00 0.00 0.00 54 1004.0
20260906074546 68 29 6.0 10.0 0.00 0.00 0.00 51 1004.2
20260906073044 68 17 8.0 12.0 0.00 0.00 0.00 50 1003.9
20260906071552 69 48 6.0 9.0 0.00 0.00 0.00 50 1004.0
20260906070039 68 23 4.0 9.0 0.00 0.00 0.00 50 1003.9
20260906064540 68 338 5.0 6.0 0.00 0.00 0.00 48 1004.1
20260906063032 69 311 4.0 6.0 0.00 0.00 0.00 47 1004.2
20260906061529 70 313 3.0 4.0 0.00 0.00 0.00 46 1004.1
20260906060029 71 12 5.0 8.0 0.00 0.00 0.00 47 1004.0
20260906054525 70 348 5.0 8.0 0.00 0.00 0.00 47 1003.7
20260906053029 71 18 4.0 6.0 0.00 0.00 0.00 46 1003.9
20260906051531 71 126 3.0 4.0 0.00 0.00 0.00 46 1003.8
20260906050047 71 131 4.0 8.0 0.00 0.00 0.00 46 1003.6
20260906044522 72 296 4.0 6.0 0.00 0.00 0.00 45 1002.7
20260906043021 73 111 8.0 12.0 0.00 0.00 0.00 44 1002.8
20260906041521 73 360 3.0 7.0 0.00 0.00 0.00 41 1002.1
20260906040020 73 313 4.0 7.0 0.00 0.00 0.00 40 1002.2
20260906034530 75 360 3.0 5.0 0.00 0.00 0.00 39 1002.5
20260906033024 76 65 1.0 6.0 0.00 0.00 0.00 40 1002.4
20260906031520 77 355 4.0 9.0 0.00 0.00 0.00 37 1002.2
20260906030019 80 55 2.0 13.0 0.00 0.00 0.00 34 1001.9
20260906024517 81 314 9.0 15.0 0.00 0.00 0.00 32 1001.5
20260906023024 81 331 6.0 12.0 0.00 0.00 0.00 31 1001.4
20260906021517 82 314 12.0 16.0 0.00 0.00 0.00 31 1001.3
20260906020016 82 313 12.0 17.0 0.00 0.00 0.00 30 1000.9
20260906014516 82 316 11.0 18.0 0.00 0.00 0.00 31 1000.9
20260906013015 82 319 12.0 19.0 0.00 0.00 0.00 30 1000.8
20260906011514 82 285 17.0 23.0 0.00 0.00 0.00 31 1001.0
20260906010015 82 315 19.0 26.0 0.00 0.00 0.00 31 1000.8
20260906004513 83 313 20.0 25.0 0.00 0.00 0.00 31 1001.3
20260906003012 83 304 18.0 29.0 0.00 0.00 0.00 31 1001.4
20260906001510 85 304 17.0 25.0 0.00 0.00 0.00 28 1001.1
20260906000009 86 306 15.0 27.0 0.00 0.00 0.00 28 1000.9
20260905234508 87 319 17.0 26.0 0.00 0.00 0.00 26 1001.0
20260905233017 90 316 2.0 4.0 0.00 0.00 0.00 23 1000.7
20260905231505 90 229 1.0 3.0 0.00 0.00 0.00 24 1000.4
20260905230006 90 232 1.0 5.0 0.00 0.00 0.00 23 1000.2
20260905224509 90 174 1.0 7.0 0.00 0.00 0.00 24 1000.1
20260905223005 91 131 1.0 11.0 0.00 0.00 0.00 23 1000.1
20260905221506 92 172 2.0 8.0 0.00 0.00 0.00 23 1000.0
20260905220003 94 138 5.0 17.0 0.00 0.00 0.00 22 1000.2
20260905214502 93 185 2.0 10.0 0.00 0.00 0.00 23 1000.4
20260905213109 94 90 9.0 17.0 0.00 0.00 0.00 23 1000.5
20260905211601 94 109 7.0 14.0 0.00 0.00 0.00 24 1000.9
20260905210058 92 125 6.0 14.0 0.00 0.00 0.00 24 1001.1
20260905204553 92 135 7.0 18.0 0.00 0.00 0.00 24 1001.3
20260905203050 94 188 3.0 16.0 0.00 0.00 0.00 22 1001.3
20260905201548 94 67 6.0 12.0 0.00 0.00 0.00 21 1001.5
20260905200054 93 56 8.0 14.0 0.00 0.00 0.00 22 1001.6
20260905194548 93 170 2.0 11.0 0.00 0.00 0.00 22 1001.9
20260905193045 94 80 5.0 10.0 0.00 0.00 0.00 23 1002.1
20260905191543 93 96 6.0 12.0 0.00 0.00 0.00 23 1002.1
20260905190042 93 136 5.0 11.0 0.00 0.00 0.00 23 1002.2
20260905184544 92 42 3.0 6.0 0.00 0.00 0.00 23 1002.5
20260905183037 91 146 1.0 5.0 0.00 0.00 0.00 25 1002.6
20260905181536 91 144 1.0 8.0 0.00 0.00 0.00 24 1002.8
20260905180033 91 104 1.0 8.0 0.00 0.00 0.00 26 1003.0
20260905174536 88 144 2.0 7.0 0.00 0.00 0.00 27 1003.3